Location: Lafig�re
(44.4503°N, 4.0357°E)
Time: 06:32:21
(UTC+00:00)

Vanguard 2 - Pass Details

Date: 27 January 2021
Orbit: 552 x 2938 km, 32.9° (Epoch: 01 March)

Event Time Altitude Azimuth Distance (km) Brightness Sun altitude
Rises 17:33:57 0° 247° (WSW) 2,710 12.7 -8.8°
Reaches altitude 10° 17:36:38 10° 226° (SW) 1,858 10.6 -9.2°
Maximum altitude 17:39:26 18° 182° (S) 1,530 9.3 -9.7°
Drops below altitude 10° 17:42:40 10° 139° (SE) 2,191 9.6 -10.2°
Enters shadow 17:45:53 - 123° (ESE) 3,315 10.4 -10.8°
